Time,TemperatureF,DewpointF,PressureIn,WindDirection,WindDirectionDegrees,WindSpeedMPH,WindSpeedGustMPH,Humidity,HourlyPrecipIn,Conditions,Clouds,dailyrainin,SoftwareType,DateUTC
2013-03-04 00:01:00,19.0,14.0,30.12,North,356,0.0,-999.0,80,-99.99,,,-99.99,,2013-03-04 05:01:00,
2013-03-04 00:11:00,19.0,14.0,30.12,North,356,0.0,-999.0,80,-99.99,,,-99.99,,2013-03-04 05:11:00,
2013-03-04 00:22:00,18.0,13.0,30.12,North,356,0.0,-999.0,80,-99.99,,,-99.99,,2013-03-04 05:22:00,
2013-03-04 00:31:00,18.0,13.0,30.12,North,356,0.0,-999.0,82,-99.99,,,-99.99,,2013-03-04 05:31:00,
2013-03-04 00:42:00,18.0,13.0,30.12,North,356,0.0,-999.0,82,-99.99,,,-99.99,,2013-03-04 05:42:00,
2013-03-04 00:52:00,18.0,13.0,30.12,North,356,0.0,-999.0,82,-99.99,,,-99.99,,2013-03-04 05:52:00,
2013-03-04 01:01:00,18.0,13.0,30.12,North,356,0.0,-999.0,82,-99.99,,,-99.99,,2013-03-04 06:01:00,
2013-03-04 01:11:00,18.0,13.0,30.12,North,356,0.0,-999.0,82,-99.99,,,-99.99,,2013-03-04 06:11:00,
2013-03-04 01:21:00,18.0,14.0,30.12,North,356,0.0,-999.0,83,-99.99,,,-99.99,,2013-03-04 06:21:00,
2013-03-04 01:31:00,18.0,14.0,30.12,North,356,0.0,-999.0,83,-99.99,,,-99.99,,2013-03-04 06:31:00,
2013-03-04 01:42:00,18.0,14.0,30.12,North,356,0.0,-999.0,83,-99.99,,,-99.99,,2013-03-04 06:42:00,
2013-03-04 01:52:00,17.0,13.0,30.12,North,356,0.0,-999.0,84,-99.99,,,-99.99,,2013-03-04 06:52:00,
2013-03-04 02:01:00,17.0,13.0,30.12,North,356,0.0,-999.0,84,-99.99,,,-99.99,,2013-03-04 07:01:00,
2013-03-04 02:11:00,17.0,13.0,30.12,North,356,0.0,-999.0,84,-99.99,,,-99.99,,2013-03-04 07:11:00,
2013-03-04 02:21:00,17.0,13.0,30.12,North,356,0.0,-999.0,85,-99.99,,,-99.99,,2013-03-04 07:21:00,
2013-03-04 02:32:00,16.0,12.0,30.12,North,356,0.0,-999.0,85,-99.99,,,-99.99,,2013-03-04 07:32:00,
2013-03-04 02:41:00,16.0,12.0,30.12,North,356,0.0,-999.0,85,-99.99,,,-99.99,,2013-03-04 07:41:00,
2013-03-04 02:52:00,16.0,12.0,30.12,North,356,0.0,-999.0,85,-99.99,,,-99.99,,2013-03-04 07:52:00,
2013-03-04 03:02:00,16.0,13.0,30.13,North,356,0.0,-999.0,86,-99.99,,,-99.99,,2013-03-04 08:02:00,
2013-03-04 03:11:00,17.0,14.0,30.13,North,356,0.0,-999.0,86,-99.99,,,-99.99,,2013-03-04 08:11:00,
2013-03-04 03:21:00,17.0,14.0,30.13,North,356,0.0,-999.0,86,-99.99,,,-99.99,,2013-03-04 08:21:00,
2013-03-04 03:32:00,17.0,14.0,30.13,North,357,0.0,-999.0,86,-99.99,,,-99.99,,2013-03-04 08:32:00,
2013-03-04 03:42:00,17.0,14.0,30.13,North,357,0.0,-999.0,86,-99.99,,,-99.99,,2013-03-04 08:42:00,
2013-03-04 03:52:00,16.0,13.0,30.13,North,357,0.0,-999.0,86,-99.99,,,-99.99,,2013-03-04 08:52:00,
2013-03-04 04:01:00,16.0,13.0,30.13,North,357,0.0,-999.0,86,-99.99,,,-99.99,,2013-03-04 09:01:00,
2013-03-04 04:11:00,16.0,13.0,30.13,North,357,0.0,-999.0,86,-99.99,,,-99.99,,2013-03-04 09:11:00,
2013-03-04 04:21:00,16.0,13.0,30.14,North,357,0.0,-999.0,86,-99.99,,,-99.99,,2013-03-04 09:21:00,
2013-03-04 04:32:00,17.0,14.0,30.14,North,357,0.0,-999.0,87,-99.99,,,-99.99,,2013-03-04 09:32:00,
2013-03-04 04:42:00,17.0,14.0,30.14,North,357,0.0,-999.0,87,-99.99,,,-99.99,,2013-03-04 09:42:00,
2013-03-04 04:52:00,16.0,13.0,30.14,North,357,0.0,-999.0,86,-99.99,,,-99.99,,2013-03-04 09:52:00,
2013-03-04 05:01:00,17.0,14.0,30.14,North,356,0.0,-999.0,87,-99.99,,,-99.99,,2013-03-04 10:01:00,
2013-03-04 05:11:00,17.0,14.0,30.14,North,356,0.0,-999.0,87,-99.99,,,-99.99,,2013-03-04 10:11:00,
2013-03-04 05:21:00,17.0,14.0,30.14,North,357,0.0,-999.0,87,-99.99,,,-99.99,,2013-03-04 10:21:00,
2013-03-04 05:31:00,17.0,14.0,30.15,North,357,0.0,-999.0,87,-99.99,,,-99.99,,2013-03-04 10:31:00,
2013-03-04 05:42:00,17.0,14.0,30.15,North,356,0.0,-999.0,87,-99.99,,,-99.99,,2013-03-04 10:42:00,
2013-03-04 05:52:00,17.0,14.0,30.15,North,356,0.0,-999.0,87,-99.99,,,-99.99,,2013-03-04 10:52:00,
2013-03-04 06:01:00,17.0,14.0,30.15,North,356,0.0,-999.0,86,-99.99,,,-99.99,,2013-03-04 11:01:00,
2013-03-04 06:11:00,17.0,14.0,30.15,North,356,0.0,-999.0,86,-99.99,,,-99.99,,2013-03-04 11:11:00,
2013-03-04 06:21:00,16.0,13.0,30.15,North,356,0.0,-999.0,86,-99.99,,,-99.99,,2013-03-04 11:21:00,
2013-03-04 06:32:00,16.0,13.0,30.15,North,356,0.0,-999.0,86,-99.99,,,-99.99,,2013-03-04 11:32:00,
2013-03-04 06:42:00,16.0,13.0,30.15,North,356,0.0,-999.0,86,-99.99,,,-99.99,,2013-03-04 11:42:00,
2013-03-04 06:52:00,16.0,13.0,30.16,North,356,0.0,-999.0,87,-99.99,,,-99.99,,2013-03-04 11:52:00,
2013-03-04 07:01:00,16.0,13.0,30.16,North,356,0.0,-999.0,87,-99.99,,,-99.99,,2013-03-04 12:01:00,
2013-03-04 07:11:00,16.0,13.0,30.16,North,356,0.0,-999.0,87,-99.99,,,-99.99,,2013-03-04 12:11:00,
2013-03-04 07:22:00,15.0,12.0,30.16,North,356,0.0,-999.0,86,-99.99,,,-99.99,,2013-03-04 12:22:00,
2013-03-04 07:32:00,15.0,12.0,30.16,North,356,0.0,-999.0,86,-99.99,,,-99.99,,2013-03-04 12:32:00,
2013-03-04 07:42:00,15.0,12.0,30.16,North,356,0.0,-999.0,86,-99.99,,,-99.99,,2013-03-04 12:42:00,
2013-03-04 07:53:00,14.0,11.0,30.16,North,356,0.0,-999.0,87,-99.99,,,-99.99,,2013-03-04 12:53:00,
2013-03-04 08:02:00,15.0,12.0,30.16,North,356,0.0,-999.0,87,-99.99,,,-99.99,,2013-03-04 13:02:00,
2013-03-04 08:11:00,15.0,12.0,30.16,North,356,0.0,-999.0,87,-99.99,,,-99.99,,2013-03-04 13:11:00,
2013-03-04 08:21:00,17.0,14.0,30.16,North,356,0.0,-999.0,88,-99.99,,,-99.99,,2013-03-04 13:21:00,
2013-03-04 08:32:00,18.0,15.0,30.16,North,356,0.0,-999.0,88,-99.99,,,-99.99,,2013-03-04 13:32:00,
2013-03-04 08:41:00,18.0,15.0,30.16,North,356,0.0,-999.0,88,-99.99,,,-99.99,,2013-03-04 13:41:00,
2013-03-04 08:52:00,19.0,16.0,30.16,North,356,0.0,-999.0,88,-99.99,,,-99.99,,2013-03-04 13:52:00,
2013-03-04 09:01:00,20.0,16.0,30.16,North,356,0.0,-999.0,86,-99.99,,,-99.99,,2013-03-04 14:01:00,
2013-03-04 09:11:00,20.0,16.0,30.16,North,356,0.0,-999.0,86,-99.99,,,-99.99,,2013-03-04 14:11:00,
2013-03-04 09:22:00,22.0,18.0,30.16,North,356,0.0,-999.0,84,-99.99,,,-99.99,,2013-03-04 14:22:00,
2013-03-04 09:32:00,24.0,19.0,30.16,North,10,0.0,-999.0,80,-99.99,,,-99.99,,2013-03-04 14:32:00,
2013-03-04 09:42:00,24.0,19.0,30.16,North,10,0.0,-999.0,80,-99.99,,,-99.99,,2013-03-04 14:42:00,
2013-03-04 09:52:00,25.0,18.0,30.16,NNE,24,0.0,-999.0,74,-99.99,,,-99.99,,2013-03-04 14:52:00,
2013-03-04 10:01:00,25.0,17.0,30.16,ENE,75,1.0,-999.0,70,-99.99,,,-99.99,,2013-03-04 15:01:00,
2013-03-04 10:11:00,25.0,17.0,30.16,ENE,75,1.0,-999.0,70,-99.99,,,-99.99,,2013-03-04 15:11:00,
2013-03-04 10:21:00,26.0,18.0,30.15,East,82,1.0,-999.0,70,-99.99,,,-99.99,,2013-03-04 15:21:00,
2013-03-04 10:32:00,27.0,18.0,30.15,SE,128,1.0,-999.0,67,-99.99,,,-99.99,,2013-03-04 15:32:00,
2013-03-04 10:42:00,27.0,18.0,30.15,SE,128,1.0,-999.0,67,-99.99,,,-99.99,,2013-03-04 15:42:00,
2013-03-04 10:52:00,28.0,16.0,30.15,East,83,1.0,-999.0,61,-99.99,,,-99.99,,2013-03-04 15:52:00,
2013-03-04 11:02:00,28.0,16.0,30.15,East,86,1.0,-999.0,61,-99.99,,,-99.99,,2013-03-04 16:02:00,
2013-03-04 11:11:00,28.0,16.0,30.15,East,86,1.0,-999.0,61,-99.99,,,-99.99,,2013-03-04 16:11:00,
2013-03-04 11:21:00,30.0,17.0,30.15,East,100,1.0,-999.0,59,-99.99,,,-99.99,,2013-03-04 16:21:00,
2013-03-04 11:31:00,30.0,16.0,30.15,ESE,103,2.0,-999.0,56,-99.99,,,-99.99,,2013-03-04 16:31:00,
2013-03-04 11:42:00,30.0,16.0,30.15,ESE,103,2.0,-999.0,56,-99.99,,,-99.99,,2013-03-04 16:42:00,
2013-03-04 11:52:00,31.0,16.0,30.15,NE,56,2.0,-999.0,53,-99.99,,,-99.99,,2013-03-04 16:52:00,
2013-03-04 12:02:00,30.0,15.0,30.14,East,97,2.0,-999.0,54,-99.99,,,-99.99,,2013-03-04 17:02:00,
2013-03-04 12:11:00,30.0,15.0,30.14,East,97,2.0,-999.0,54,-99.99,,,-99.99,,2013-03-04 17:11:00,
2013-03-04 12:22:00,30.0,15.0,30.13,East,89,3.0,-999.0,53,-99.99,,,-99.99,,2013-03-04 17:22:00,
2013-03-04 12:32:00,31.0,15.0,30.13,North,6,2.0,-999.0,51,-99.99,,,-99.99,,2013-03-04 17:32:00,
2013-03-04 12:42:00,31.0,15.0,30.13,North,6,2.0,-999.0,51,-99.99,,,-99.99,,2013-03-04 17:42:00,
2013-03-04 12:52:00,32.0,16.0,30.13,East,100,1.0,-999.0,52,-99.99,,,-99.99,,2013-03-04 17:52:00,
2013-03-04 13:01:00,32.0,17.0,30.12,ENE,65,2.0,-999.0,53,-99.99,,,-99.99,,2013-03-04 18:01:00,
2013-03-04 13:11:00,32.0,17.0,30.12,ENE,65,2.0,-999.0,53,-99.99,,,-99.99,,2013-03-04 18:11:00,
2013-03-04 13:21:00,33.0,17.0,30.11,NNE,32,3.0,-999.0,51,-99.99,,,-99.99,,2013-03-04 18:21:00,
2013-03-04 13:32:00,32.0,16.0,30.11,ENE,73,3.0,-999.0,52,-99.99,,,-99.99,,2013-03-04 18:32:00,
2013-03-04 13:42:00,32.0,16.0,30.11,ENE,73,3.0,-999.0,52,-99.99,,,-99.99,,2013-03-04 18:42:00,
2013-03-04 13:52:00,33.0,16.0,30.10,East,88,2.0,-999.0,50,-99.99,,,-99.99,,2013-03-04 18:52:00,
2013-03-04 14:01:00,34.0,18.0,30.10,East,92,3.0,-999.0,52,-99.99,,,-99.99,,2013-03-04 19:01:00,
2013-03-04 14:11:00,34.0,18.0,30.10,East,92,3.0,-999.0,52,-99.99,,,-99.99,,2013-03-04 19:11:00,
2013-03-04 14:22:00,34.0,17.0,30.09,ESE,104,2.0,-999.0,49,-99.99,,,-99.99,,2013-03-04 19:22:00,
2013-03-04 14:32:00,34.0,16.0,30.09,East,99,2.0,-999.0,48,-99.99,,,-99.99,,2013-03-04 19:32:00,
2013-03-04 14:42:00,34.0,16.0,30.09,East,99,2.0,-999.0,48,-99.99,,,-99.99,,2013-03-04 19:42:00,
2013-03-04 14:52:00,34.0,17.0,30.09,East,86,2.0,-999.0,50,-99.99,,,-99.99,,2013-03-04 19:52:00,
2013-03-04 15:01:00,35.0,18.0,30.08,East,88,1.0,-999.0,49,-99.99,,,-99.99,,2013-03-04 20:01:00,
2013-03-04 15:11:00,36.0,17.0,30.08,ESE,107,1.0,-999.0,45,-99.99,,,-99.99,,2013-03-04 20:11:00,
2013-03-04 15:22:00,36.0,17.0,30.08,ESE,107,1.0,-999.0,45,-99.99,,,-99.99,,2013-03-04 20:22:00,
2013-03-04 15:32:00,36.0,19.0,30.07,SE,138,1.0,-999.0,49,-99.99,,,-99.99,,2013-03-04 20:32:00,
2013-03-04 15:42:00,36.0,19.0,30.07,SE,138,1.0,-999.0,49,-99.99,,,-99.99,,2013-03-04 20:42:00,
2013-03-04 15:52:00,36.0,18.0,30.07,East,86,2.0,-999.0,47,-99.99,,,-99.99,,2013-03-04 20:52:00,
2013-03-04 16:02:00,37.0,19.0,30.07,ESE,113,2.0,-999.0,48,-99.99,,,-99.99,,2013-03-04 21:02:00,
2013-03-04 16:11:00,37.0,19.0,30.07,ESE,113,2.0,-999.0,48,-99.99,,,-99.99,,2013-03-04 21:11:00,
2013-03-04 16:22:00,36.0,17.0,30.07,East,95,2.0,-999.0,46,-99.99,,,-99.99,,2013-03-04 21:22:00,
2013-03-04 16:32:00,36.0,17.0,30.07,ESE,116,2.0,-999.0,46,-99.99,,,-99.99,,2013-03-04 21:32:00,
2013-03-04 16:42:00,36.0,17.0,30.07,ESE,116,2.0,-999.0,46,-99.99,,,-99.99,,2013-03-04 21:42:00,
2013-03-04 16:53:00,36.0,17.0,30.07,East,89,2.0,-999.0,46,-99.99,,,-99.99,,2013-03-04 21:53:00,
2013-03-04 17:01:00,35.0,16.0,30.06,ESE,116,2.0,-999.0,46,-99.99,,,-99.99,,2013-03-04 22:01:00,
2013-03-04 17:12:00,35.0,16.0,30.06,ESE,116,2.0,-999.0,46,-99.99,,,-99.99,,2013-03-04 22:12:00,
2013-03-04 17:22:00,35.0,16.0,30.07,SE,126,2.0,-999.0,45,-99.99,,,-99.99,,2013-03-04 22:22:00,
2013-03-04 17:32:00,35.0,17.0,30.07,SE,138,2.0,-999.0,47,-99.99,,,-99.99,,2013-03-04 22:32:00,
2013-03-04 17:42:00,35.0,17.0,30.07,SE,138,2.0,-999.0,47,-99.99,,,-99.99,,2013-03-04 22:42:00,
2013-03-04 17:52:00,35.0,17.0,30.06,East,88,1.0,-999.0,48,-99.99,,,-99.99,,2013-03-04 22:52:00,
2013-03-04 18:01:00,34.0,17.0,30.06,ESE,104,2.0,-999.0,49,-99.99,,,-99.99,,2013-03-04 23:01:00,
2013-03-04 18:11:00,34.0,17.0,30.06,ESE,104,2.0,-999.0,49,-99.99,,,-99.99,,2013-03-04 23:11:00,
2013-03-04 18:22:00,34.0,17.0,30.05,East,83,2.0,-999.0,49,-99.99,,,-99.99,,2013-03-04 23:22:00,
2013-03-04 18:32:00,34.0,18.0,30.06,East,86,1.0,-999.0,52,-99.99,,,-99.99,,2013-03-04 23:32:00,
2013-03-04 18:42:00,34.0,18.0,30.06,East,86,1.0,-999.0,52,-99.99,,,-99.99,,2013-03-04 23:42:00,
2013-03-04 18:52:00,34.0,19.0,30.05,East,95,2.0,-999.0,53,-99.99,,,-99.99,,2013-03-04 23:52:00,
2013-03-04 19:02:00,33.0,19.0,30.05,East,93,1.0,-999.0,55,-99.99,,,-99.99,,2013-03-05 00:02:00,
2013-03-04 19:11:00,33.0,19.0,30.05,East,93,1.0,-999.0,55,-99.99,,,-99.99,,2013-03-05 00:11:00,
2013-03-04 19:21:00,33.0,19.0,30.05,ENE,72,1.0,-999.0,56,-99.99,,,-99.99,,2013-03-05 00:21:00,
2013-03-04 19:32:00,33.0,19.0,30.05,East,99,1.0,-999.0,57,-99.99,,,-99.99,,2013-03-05 00:32:00,
2013-03-04 19:42:00,33.0,19.0,30.05,East,99,1.0,-999.0,57,-99.99,,,-99.99,,2013-03-05 00:42:00,
2013-03-04 19:52:00,33.0,20.0,30.06,ENE,71,1.0,-999.0,59,-99.99,,,-99.99,,2013-03-05 00:52:00,
2013-03-04 20:01:00,32.0,20.0,30.06,ENE,72,1.0,-999.0,60,-99.99,,,-99.99,,2013-03-05 01:01:00,
2013-03-04 20:12:00,32.0,20.0,30.06,ENE,72,1.0,-999.0,60,-99.99,,,-99.99,,2013-03-05 01:12:00,
2013-03-04 20:21:00,32.0,20.0,30.06,East,90,1.0,-999.0,61,-99.99,,,-99.99,,2013-03-05 01:21:00,
2013-03-04 20:32:00,32.0,20.0,30.07,East,92,0.0,-999.0,61,-99.99,,,-99.99,,2013-03-05 01:32:00,
2013-03-04 20:41:00,32.0,20.0,30.07,East,92,0.0,-999.0,61,-99.99,,,-99.99,,2013-03-05 01:41:00,
2013-03-04 20:52:00,32.0,20.0,30.07,East,99,1.0,-999.0,61,-99.99,,,-99.99,,2013-03-05 01:52:00,
2013-03-04 21:01:00,32.0,20.0,30.07,East,93,1.0,-999.0,62,-99.99,,,-99.99,,2013-03-05 02:01:00,
2013-03-04 21:11:00,32.0,20.0,30.07,East,93,1.0,-999.0,62,-99.99,,,-99.99,,2013-03-05 02:11:00,
2013-03-04 21:21:00,32.0,20.0,30.07,East,79,1.0,-999.0,62,-99.99,,,-99.99,,2013-03-05 02:21:00,
2013-03-04 21:32:00,32.0,20.0,30.08,East,79,1.0,-999.0,62,-99.99,,,-99.99,,2013-03-05 02:32:00,
2013-03-04 21:42:00,32.0,20.0,30.08,East,79,1.0,-999.0,62,-99.99,,,-99.99,,2013-03-05 02:42:00,
2013-03-04 21:52:00,32.0,21.0,30.08,East,80,1.0,-999.0,63,-99.99,,,-99.99,,2013-03-05 02:52:00,
2013-03-04 22:02:00,32.0,21.0,30.08,East,80,1.0,-999.0,63,-99.99,,,-99.99,,2013-03-05 03:02:00,
2013-03-04 22:12:00,32.0,21.0,30.08,East,80,1.0,-999.0,63,-99.99,,,-99.99,,2013-03-05 03:12:00,
2013-03-04 22:22:00,31.0,20.0,30.08,East,92,1.0,-999.0,63,-99.99,,,-99.99,,2013-03-05 03:22:00,
2013-03-04 22:32:00,31.0,20.0,30.08,ESE,109,1.0,-999.0,63,-99.99,,,-99.99,,2013-03-05 03:32:00,
2013-03-04 22:42:00,31.0,20.0,30.08,ESE,109,1.0,-999.0,63,-99.99,,,-99.99,,2013-03-05 03:42:00,
2013-03-04 22:52:00,31.0,20.0,30.08,SE,127,0.0,-999.0,63,-99.99,,,-99.99,,2013-03-05 03:52:00,
2013-03-04 23:01:00,31.0,20.0,30.08,SE,127,1.0,-999.0,64,-99.99,,,-99.99,,2013-03-05 04:01:00,
2013-03-04 23:11:00,31.0,20.0,30.08,SE,127,1.0,-999.0,64,-99.99,,,-99.99,,2013-03-05 04:11:00,
2013-03-04 23:22:00,31.0,21.0,30.09,SE,127,0.0,-999.0,67,-99.99,,,-99.99,,2013-03-05 04:22:00,
2013-03-04 23:32:00,31.0,22.0,30.08,SE,127,0.0,-999.0,70,-99.99,,,-99.99,,2013-03-05 04:32:00,
2013-03-04 23:42:00,31.0,22.0,30.08,SE,127,0.0,-999.0,70,-99.99,,,-99.99,,2013-03-05 04:42:00,
2013-03-04 23:52:00,31.0,23.0,30.08,SE,124,0.0,-999.0,72,-99.99,,,-99.99,,2013-03-05 04:52:00,